Location: Krasnoyarskiy Pitomnik
(51.1333°N, 71.6167°E)
Time: 09:14:28
(UTC+00:00)

Cosmos 1908 - Pass Details

Date: 22 October 2021
Orbit: 509 x 528 km, 82.5° (Epoch: 06 December)

Event Time Altitude Azimuth Distance (km) Brightness Sun altitude
Rises 13:07:23 0° 191° (SSW) 2,651 7.0 -10.2°
Reaches altitude 10° 13:09:31 10° 193° (SSW) 1,764 6.1 -10.5°
Maximum altitude 13:13:23 81° 280° (W) 538 3.3 -11.1°
Drops below altitude 10° 13:17:17 10° 9° (N) 1,769 5.8 -11.8°
Sets 13:19:25 0° 10° (N) 2,659 6.7 -12.1°
